Stations météo

Publicité
Paris-Montsouris, France (7156): Température de l'air & dewpoint: 17.02.2017 01:00:00 - 23.02.2017 01:00:00 (CET)Paris-Montsouris, France (7156): Température de l'air 5cm: 17.02.2017 01:00:00 - 23.02.2017 01:00:00 (CET)Paris-Montsouris, France (7156): Température de l'air -20cm & Température de l'air -100cm: 17.02.2017 01:00:00 - 23.02.2017 01:00:00 (CET)Paris-Montsouris, France (7156): Vitesse du vent & gusts: 17.02.2017 01:00:00 - 23.02.2017 01:00:00 (CET)Paris-Montsouris, France (7156): Direction du vent: 17.02.2017 01:00:00 - 23.02.2017 01:00:00 (CET)Paris-Montsouris, France (7156): reduced air pressure: 17.02.2017 01:00:00 - 23.02.2017 01:00:00 (CET)Paris-Montsouris, France (7156): visibility: 17.02.2017 01:00:00 - 23.02.2017 01:00:00 (CET)Paris-Montsouris, France (7156): Ensoleillement: 17.02.2017 01:00:00 - 23.02.2017 01:00:00 (CET)Paris-Montsouris, France (7156): Quantités de précipitations: 17.02.2017 01:00:00 - 23.02.2017 01:00:00 (CET)
Date & Time tt [°C] td [°C] tt 5cm [°C] tt -20cm [°C] tt -100cm [°C] ff [km/h] ff [knt] fx [km/h] fx [knt] dd ppp [hPa] vv [km] sd [min] rr [mm]
23.02.2017 01:00:00 10,3 6,4 9,8 8,0 7,1 16 9 39 21 SW 1013,8 20 0 0,0
23.02.2017 00:00:00 10,5 6,6 10,0 8,0 7,1 13 7 37 20 SW 1014,4 20 0 0,0
22.02.2017 23:00:00 10,8 6,5 10,1 8,1 7,1 14 8 32 17 SW 1014,9 20 0 0,0
22.02.2017 22:00:00 11,0 6,7 10,3 8,1 7,0 14 7 35 19 SW 1015,2 20 0 0,0
22.02.2017 21:00:00 11,3 6,6 10,2 8,1 7,0 10 6 35 19 SW 1015,4 20 0 0,0
22.02.2017 20:00:00 11,3 6,4 10,4 8,1 7,1 15 8 38 21 SW 1015,4 20 0 0,0
22.02.2017 19:00:00 11,5 6,4 10,9 8,1 7,0 15 8 36 20 WSW 1015,6 20 0 0,0
22.02.2017 18:00:00 11,8 6,5 11,2 8,1 7,0 15 8 36 19 WSW 1016,0 20 0 0,0
22.02.2017 17:00:00 12,1 6,6 11,9 8,0 7,0 17 9 48 26 WSW 1015,9 20 0 0,0
22.02.2017 16:00:00 12,0 6,7 12,2 8,0 7,0 22 12 51 28 WSW 1016,1 20 0 0,0
22.02.2017 15:00:00 12,3 7,0 12,5 7,9 7,0 20 11 42 23 WSW 1016,4 20 0 0,0
22.02.2017 14:00:00 12,0 6,9 11,6 7,9 7,0 17 9 40 22 WSW 1016,9 19 0 0,0
22.02.2017 13:00:00 11,5 7,0 11,4 7,8 7,0 15 8 41 22 WSW 1017,6 20 0 0,0
22.02.2017 12:00:00 11,2 6,9 10,9 7,8 7,0 21 11 48 26 WSW 1018,0 20 0 0,0
22.02.2017 11:00:00 10,8 6,9 10,7 7,8 7,0 21 12 44 24 W 1018,1 20 0 0,0
22.02.2017 10:00:00 10,6 6,9 10,3 7,8 7,0 13 7 31 17 WSW 1018,2 20 0 0,0
22.02.2017 09:00:00 10,6 6,7 10,2 7,8 7,0 16 8 29 16 WSW 1018,1 20 0 0,0
22.02.2017 08:00:00 10,7 6,6 10,2 7,8 7,0 13 7 41 22 WSW 1018,1 20 0 0,0
22.02.2017 07:00:00 10,9 6,6 10,3 7,9 7,0 16 9 39 21 WSW 1017,7 20 0 0,0
22.02.2017 06:00:00 11,1 6,2 10,4 7,9 7,0 13 7 39 21 W 1017,8 20 0 0,0
22.02.2017 05:00:00 11,0 6,5 10,4 7,9 7,0 17 9 45 25 W 1018,0 20 0 0,0
22.02.2017 04:00:00 11,0 6,9 10,5 7,9 7,0 17 9 37 20 W 1018,0 20 0 0,0
22.02.2017 03:00:00 11,0 8,0 10,4 7,9 7,0 13 7 36 19 WSW 1018,6 20 0 0,0
22.02.2017 02:00:00 11,2 8,2 10,7 7,9 6,9 14 7 29 16 WSW 1019,2 20 0 0,0
22.02.2017 01:00:00 10,2 7,1 10,8 7,9 6,9 10 5 32 18 SW 1019,7 20 0 0,0
22.02.2017 00:00:00 17,7 14,2 10,9 7,9 6,9 13 7 31 17 WSW 1019,8 20 0 0,0
21.02.2017 23:00:00 29,2 24,7 11,2 7,9 6,9 15 8 39 21 W 1019,7 20 0 0,0
21.02.2017 22:00:00 20,7 17,3 11,4 7,9 6,9 18 10 35 19 W 1019,8 20 0 0,0
21.02.2017 21:00:00 17,8 14,7 11,4 7,9 6,9 12 6 27 15 WSW 1020,4 20 0 0,0
21.02.2017 20:00:00 28,0 25,0 10,8 7,9 6,9 11 6 26 14 WSW 1020,0 20 0 0,0
21.02.2017 19:00:00 11,9 9,8 11,0 7,9 6,9 11 6 29 16 SW 1020,8 20 0 0,0
21.02.2017 18:00:00 12,3 9,5 11,9 7,9 6,9 13 7 32 17 W 1020,7 20 0 0,0
21.02.2017 17:00:00 12,8 9,6 12,5 7,8 6,9 16 8 33 18 W 1020,6 20 0 0,0
21.02.2017 16:00:00 12,8 9,2 12,8 7,7 6,9 9 5 35 19 W 1020,9 20 0 0,0
21.02.2017 15:00:00 12,8 9,4 12,7 7,6 6,9 16 9 35 19 W 1021,1 20 0 0,0
21.02.2017 14:00:00 12,3 9,3 13,1 7,5 6,9 16 8 37 20 W 1021,4 20 0 0,0
21.02.2017 13:00:00 11,7 8,9 12,1 7,4 6,9 15 8 34 18 W 1022,1 20 0 0,0
21.02.2017 12:00:00 11,3 8,5 11,9 7,3 6,9 14 8 36 20 W 1022,5 20 0 0,0
21.02.2017 11:00:00 11,0 7,9 10,7 7,3 6,9 17 9 36 19 W 1022,4 20 0 0,0
21.02.2017 10:00:00 10,4 8,2 10,1 7,2 6,9 11 6 45 24 W 1022,4 20 0 0,0
21.02.2017 09:00:00 10,5 7,9 10,3 7,2 6,9 16 9 45 24 WNW 1022,2 20 0 0,0
21.02.2017 08:00:00 10,6 8,4 - - - 15 8 37 20 W 1021,8 20 - 0,0
21.02.2017 07:00:00 10,8 8,9 10,4 7,2 6,9 15 8 34 18 W 1021,3 20 0 0,0
21.02.2017 06:00:00 10,8 9,1 10,5 7,2 6,9 8 5 30 16 W 1021,3 20 0 0,0
21.02.2017 05:00:00 11,0 9,4 10,6 7,1 6,9 13 7 28 15 W 1021,4 20 0 0,0
21.02.2017 04:00:00 11,3 9,6 10,8 7,1 6,9 9 5 26 14 W 1021,4 16 0 0,0
21.02.2017 03:00:00 11,5 9,6 11,1 7,1 6,9 14 7 29 16 W 1021,8 20 0 0,0
21.02.2017 02:00:00 11,7 9,9 11,2 7,1 6,9 10 5 28 15 WNW 1021,9 20 0 0,0
21.02.2017 01:00:00 11,9 10,0 11,6 7,0 6,9 10 5 33 18 WNW 1022,2 20 0 0,0
21.02.2017 00:00:00 12,2 10,3 11,7 7,0 6,9 10 5 37 20 W 1021,9 20 0 0,0
20.02.2017 23:00:00 12,2 10,3 11,7 7,0 6,9 9 5 28 15 W 1022,1 20 0 0,0
20.02.2017 22:00:00 12,2 10,6 11,5 7,0 6,9 11 6 29 16 W 1022,1 20 0 0,0
20.02.2017 21:00:00 12,0 10,7 11,0 6,9 6,9 8 5 22 12 W 1022,2 20 0 0,0
20.02.2017 20:00:00 11,9 10,5 11,1 6,9 6,9 13 7 26 14 W 1022,6 6 0 0,0
20.02.2017 19:00:00 11,9 10,0 11,4 6,8 6,9 9 5 23 13 WSW 1022,3 20 0 0,0
20.02.2017 18:00:00 12,0 9,9 11,6 6,7 6,9 11 6 27 15 WSW 1021,8 20 0 0,0
20.02.2017 17:00:00 12,0 9,6 12,0 6,7 6,9 8 4 29 15 WSW 1021,9 20 0 0,0
20.02.2017 16:00:00 11,7 9,1 11,9 6,6 6,9 11 6 27 14 WSW 1022,0 20 0 0,0
20.02.2017 15:00:00 11,0 8,6 10,9 6,5 6,9 9 5 22 12 SW 1022,4 20 0 0,0
20.02.2017 14:00:00 10,6 8,4 10,7 6,3 6,9 8 5 25 13 WSW 1022,9 19 0 0,0
20.02.2017 13:00:00 10,8 7,8 11,3 6,2 6,8 10 5 29 16 WSW 1023,2 19 0 0,0
20.02.2017 12:00:00 10,8 7,5 11,7 6,1 6,9 10 5 32 17 WSW 1023,9 19 0 0,0
20.02.2017 11:00:00 10,3 7,5 9,8 6,0 6,9 10 5 29 16 WSW 1023,8 14 0 0,0
20.02.2017 10:00:00 9,3 6,9 8,9 5,9 6,9 13 7 27 15 SW 1023,8 9 3 0,0
20.02.2017 09:00:00 9,0 6,4 8,2 5,9 6,9 11 6 23 12 SW 1024,1 11 4 0,0
20.02.2017 08:00:00 8,6 6,2 7,9 5,9 6,9 9 5 22 12 SW 1023,7 12 0 0,0
20.02.2017 07:00:00 8,3 6,1 7,8 5,9 6,9 9 5 23 12 SW 1023,7 12 0 0,0
20.02.2017 06:00:00 8,4 5,9 7,9 5,9 6,9 11 6 22 12 SSW 1023,9 15 0 0,0
20.02.2017 05:00:00 8,8 5,5 7,9 5,9 6,9 8 4 16 9 SW 1024,3 20 0 0,0
20.02.2017 04:00:00 8,8 5,0 7,7 5,9 6,9 4 2 11 6 SSW 1024,4 20 0 0,0
20.02.2017 03:00:00 9,0 5,0 7,8 5,9 6,9 6 3 17 9 WSW 1024,9 19 0 0,0
20.02.2017 02:00:00 9,2 5,0 7,8 5,9 6,9 7 4 21 11 WSW 1025,2 20 0 0,0
20.02.2017 01:00:00 9,3 4,9 7,7 5,9 6,9 6 3 21 11 SW 1025,5 20 0 0,0
20.02.2017 00:00:00 9,4 4,8 6,8 5,8 6,9 9 5 22 12 W 1025,7 20 0 0,0
19.02.2017 23:00:00 9,8 5,0 8,6 5,9 6,9 9 5 22 12 W 1025,6 20 0 0,0
19.02.2017 22:00:00 9,9 5,7 8,3 5,8 6,8 8 5 19 11 W 1025,5 18 0 0,0
19.02.2017 21:00:00 10,1 5,9 8,8 5,8 6,9 10 5 20 11 W 1025,3 17 0 0,0
19.02.2017 20:00:00 10,1 5,9 8,9 5,8 6,9 8 4 22 12 W 1025,4 17 0 0,0
19.02.2017 19:00:00 10,2 5,6 9,2 5,7 6,9 9 5 25 13 W 1025,4 20 0 0,0
19.02.2017 18:00:00 10,5 5,7 9,7 5,6 6,9 12 7 29 15 W 1025,0 20 0 0,0
19.02.2017 17:00:00 10,8 5,1 10,0 5,5 6,8 9 5 31 17 W 1025,0 20 0 0,0
19.02.2017 16:00:00 11,2 5,1 10,8 5,3 6,8 9 5 26 14 WNW 1025,1 20 23 0,0
19.02.2017 15:00:00 11,9 4,4 12,4 5,1 6,9 12 7 24 13 W 1024,9 19 56 0,0
19.02.2017 14:00:00 11,8 4,5 12,5 5,0 6,9 8 4 19 10 W 1025,1 20 43 0,0
19.02.2017 13:00:00 10,4 3,7 11,5 4,8 6,8 7 4 15 8 W 1026,0 19 26 0,0
19.02.2017 12:00:00 8,8 4,4 8,4 4,8 6,9 3 2 10 5 SW 1026,6 11 34 0,0
19.02.2017 11:00:00 6,3 3,1 3,8 4,8 6,9 4 2 16 8 S 1026,6 8 60 0,0
19.02.2017 10:00:00 4,1 2,3 0,6 4,9 6,8 4 2 12 7 S 1026,8 6 60 0,0
19.02.2017 09:00:00 2,9 1,7 -1,5 5,0 6,8 5 3 8 4 SSW 1026,4 9 45 0,0
19.02.2017 08:00:00 1,9 1,0 -2,1 5,0 6,8 4 2 9 5 W 1026,1 6 0 0,0
19.02.2017 07:00:00 2,2 1,3 -2,0 5,2 6,8 6 3 8 4 W 1025,6 6 0 0,0
19.02.2017 06:00:00 2,7 1,8 -1,5 5,2 6,8 5 3 7 4 SSW 1025,2 7 0 0,0
19.02.2017 05:00:00 3,1 2,1 -1,3 5,4 6,8 4 2 6 4 S 1025,3 7 0 0,0
19.02.2017 04:00:00 3,7 2,5 -0,5 5,4 6,8 4 2 8 4 W 1025,5 6 0 0,0
19.02.2017 03:00:00 4,1 2,8 -0,4 5,5 6,8 2 1 4 2 WNW 1026,0 7 0 0,0
19.02.2017 02:00:00 4,5 2,8 0,2 5,6 6,8 2 1 6 4 W 1026,2 8 0 0,0
19.02.2017 01:00:00 4,9 2,8 0,3 5,7 6,9 5 3 11 6 SSE 1025,9 10 0 0,0
19.02.2017 00:00:00 5,5 3,8 0,8 5,8 6,8 7 4 9 5 SSE 1025,9 8 0 0,0
18.02.2017 23:00:00 5,5 3,7 1,1 5,9 6,8 2 1 7 4 E 1026,1 10 0 0,0
18.02.2017 22:00:00 6,1 4,1 1,7 6,0 6,8 5 3 19 10 SE 1026,0 10 0 0,0
18.02.2017 21:00:00 7,1 4,9 2,9 6,0 6,8 10 6 19 10 ESE 1026,0 11 0 0,0
18.02.2017 20:00:00 8,1 5,2 4,1 6,1 6,8 9 5 21 12 SE 1025,8 14 0 0,0
18.02.2017 19:00:00 8,8 3,6 4,4 6,1 6,8 10 5 21 11 ESE 1025,5 20 0 0,0
18.02.2017 18:00:00 9,9 4,1 6,8 6,1 6,8 10 6 18 10 ESE 1025,3 20 35 0,0
18.02.2017 17:00:00 11,0 3,3 10,3 5,9 6,8 6 3 19 11 SE 1024,9 20 0 0,0
18.02.2017 16:00:00 11,6 4,1 11,6 5,8 6,8 7 4 18 10 ESE 1025,2 20 39 0,0
18.02.2017 15:00:00 11,4 5,3 11,1 5,6 6,8 10 5 19 11 ESE 1025,5 20 57 0,0
18.02.2017 14:00:00 10,9 6,0 11,6 5,5 6,8 10 5 24 13 SSE 1026,1 15 60 0,0
18.02.2017 13:00:00 8,7 5,3 7,7 5,4 6,8 8 5 18 10 SE 1026,9 12 60 0,0
18.02.2017 12:00:00 6,3 4,8 5,8 5,4 6,8 7 4 16 9 SE 1027,7 9 56 0,0
18.02.2017 11:00:00 5,1 4,4 4,9 5,3 6,8 5 3 14 7 ESE 1027,7 7 34 0,0
18.02.2017 10:00:00 4,0 3,7 3,6 5,3 6,8 6 3 16 8 SSE 1027,6 2,1 0 0,0
18.02.2017 09:00:00 3,3 3,2 2,4 5,4 6,8 5 3 11 6 SSE 1027,6 0,4 0 0,0
18.02.2017 08:00:00 2,8 2,5 1,8 5,5 6,8 3 2 9 5 S 1027,5 0,3 0 0,0
18.02.2017 07:00:00 3,0 2,7 -0,5 5,6 6,8 4 2 9 5 S 1027,4 0,2 0 0,0
18.02.2017 06:00:00 2,9 2,5 -0,8 5,6 6,8 5 3 8 4 S 1027,5 2,5 0 0,0
18.02.2017 05:00:00 3,7 3,3 -0,9 5,7 6,7 4 2 10 5 S 1027,3 2,2 0 0,0
18.02.2017 04:00:00 4,3 3,9 0,3 5,9 6,8 6 4 9 5 ESE 1027,7 2,1 0 0,0
18.02.2017 03:00:00 4,6 4,0 0,5 6,0 6,8 3 1 11 6 E 1028,1 2,5 0 0,0
18.02.2017 02:00:00 5,2 4,5 0,6 6,1 6,7 5 3 16 8 ESE 1028,4 2,7 0 0,0
18.02.2017 01:00:00 5,5 4,9 0,4 6,2 6,7 3 2 6 4 SSE 1028,5 2,4 0 0,0
18.02.2017 00:00:00 5,7 4,8 1,1 6,3 6,7 4 2 10 5 S 1028,7 3,0 0 0,0
17.02.2017 23:00:00 6,0 4,8 1,3 6,4 6,7 4 2 11 6 S 1029,0 4,1 0 0,0
17.02.2017 22:00:00 6,7 5,0 2,2 6,5 6,7 5 3 11 6 ESE 1029,2 6 0 0,0
17.02.2017 21:00:00 6,8 5,1 2,6 6,6 6,7 4 2 13 7 ESE 1029,2 7 0 0,0
17.02.2017 20:00:00 7,7 5,2 3,5 6,7 6,7 7 4 15 8 ESE 1029,2 9 0 0,0
17.02.2017 19:00:00 7,5 4,4 3,4 6,7 6,7 5 3 12 6 NNE 1028,9 18 0 0,0
17.02.2017 18:00:00 8,7 4,9 5,6 6,7 6,7 8 4 13 7 NNE 1028,6 16 34 0,0
17.02.2017 17:00:00 9,9 5,5 9,1 6,6 6,7 7 4 18 10 N 1028,6 14 60 0,0
17.02.2017 16:00:00 10,5 6,3 11,2 6,5 6,7 10 6 18 10 N 1028,8 11 55 0,0
17.02.2017 15:00:00 11,4 5,9 11,7 6,3 6,7 6 3 14 8 W 1028,9 15 60 0,0
17.02.2017 14:00:00 11,0 6,5 12,6 6,2 6,7 6 3 14 8 W 1029,4 12 58 0,0
17.02.2017 13:00:00 9,2 6,5 9,0 6,1 6,7 6 3 13 7 WNW 1029,8 9 41 0,0
17.02.2017 12:00:00 8,4 6,0 8,8 6,0 6,7 6 3 13 7 W 1030,3 7 51 0,0
17.02.2017 11:00:00 7,7 5,7 7,9 6,0 6,7 3 1 12 7 NNW 1030,4 7 7 0,0
17.02.2017 10:00:00 7,0 5,8 6,5 5,9 6,7 5 3 11 6 W 1030,2 6 0 0,0
17.02.2017 09:00:00 6,8 5,7 5,4 6,0 6,7 5 3 10 6 W 1030,1 5 0 0,0
17.02.2017 08:00:00 6,6 5,7 2,8 6,0 6,7 6 4 12 6 WNW 1029,8 6 0 0,0
17.02.2017 07:00:00 7,0 5,9 4,5 6,1 6,7 4 2 11 6 WNW 1029,5 9 0 0,0
17.02.2017 06:00:00 7,0 5,8 4,2 6,1 6,6 4 2 11 6 NW 1029,5 9 0 0,0
17.02.2017 05:00:00 7,0 5,8 4,8 6,2 6,7 6 3 11 6 W 1029,6 8 0 0,0
17.02.2017 04:00:00 7,0 6,1 3,9 6,3 6,7 5 3 11 6 W 1029,6 6 0 0,0
17.02.2017 03:00:00 7,2 6,1 4,0 6,4 6,7 5 3 10 6 W 1029,9 6 0 0,0
17.02.2017 02:00:00 7,5 6,4 3,4 6,5 6,7 7 4 10 5 W 1030,1 6 0 0,0
17.02.2017 01:00:00 7,7 6,5 3,0 6,6 6,6 7 4 11 6 W 1030,3 6 0 0,0

tt = Température de l'air
td = dewpoint
tt 5cm = Température de l'air 5cm
tt -20cm = Température de l'air -20cm
tt -100cm = Température de l'air -100cm
ff = Vitesse du vent
fx = gusts
dd = Direction du vent
ppp = reduced air pressure
vv = visibility
sd = Ensoleillement
rr = Quantités de précipitations

stations d'obs. à proximité